[Date Prev][Date Next][Thread Prev][Thread Next] - [Date Index][Thread Index][Author Index]

2 Line ISS Keps 6-12



ISS
1 25544U 98067A   06162.80162037  .00009355  00000-0  63747-4 0  1009
2 25544 051.6313 215.2062 0009598 311.7500 203.7639 15.75673108432313
----
Via the sarex mailing list at AMSAT.ORG courtesy of AMSAT-NA.
To unsubscribe, send "unsubscribe sarex" to Majordomo@amsat.org



AMSAT Top AMSAT Home